Preview of NWS' New Version of Forecast
This preview is not operational and should not be used for support decisions.

Regional Weather Roundup (RWR)

Issued by Philadelphia/Mt Holly (PHI)

                            
000
ASUS41 KPHI 250612
RWRPHI

REGIONAL WEATHER ROUNDUP
NATIONAL WEATHER SERVICE MOUNT HOLLY NJ
200 AM EDT SAT MAY 25 2019

NOTE:  "FAIR" INDICATES FEW OR NO CLOUDS BELOW 12,000 FEET WITH NO
SIGNIFICANT WEATHER AND/OR OBSTRUCTIONS TO VISIBILITY.

 * = STATION DOES NOT REPORT PRECIPITATION (E.G. RAIN, SNOW, ETC.) 
        OR FOG.

NJZ015>026-250700-
SOUTHERN NEW JERSEY
  
CITY           SKY/WX    TMP DP  RH WIND       PRES   REMARKS
POMONA         FAIR      60  52  74 N6        30.14R                  
6HR MIN TEMP:  60; 6HR MAX TEMP:  73;                                

WILDWOOD*      MOCLDY    59  55  87 NE3       30.14R                  
MILLVILLE      FAIR      63  51  65 NE7       30.13R                  
WRIGHTSTOWN    FAIR      57  49  76 NE5       30.12S                  
MOUNT HOLLY    FAIR      59  49  69 NE3       30.14S                  
TRENTON        FAIR      58  49  72 N6        30.14S                  
6HR MIN TEMP:  58; 6HR MAX TEMP:  71;                                


$$
NJZ001>014-250700-
NORTHERN NEW JERSEY
  
CITY           SKY/WX    TMP DP  RH WIND       PRES   REMARKS
SUSSEX         FAIR      49  49 100 CALM      30.19R                  
ANDOVER*         N/A     51  49  92 CALM      30.18R                  
MORRISTOWN     FAIR      54  54 100 CALM      30.16S                  
NEWARK         FAIR      61  49  64 N7        30.15R                  
TETERBORO      FAIR      59  49  69 N5        30.14R                  
CALDWELL       FAIR      56  51  84 CALM      30.17R                  
SOMERVILLE     FAIR      53  49  86 N3        30.14S                  
ALLAIRE*       FAIR      58  50  75 N7        30.15S                  
TOMS RIVER*    FAIR      56  51  84 CALM      30.15S                  

$$
PAZ043-044-047-054-055-060>062-066>071-250700-
EASTERN PENNSYLVANIA
  
CITY           SKY/WX    TMP DP  RH WIND       PRES   REMARKS
PHILADELPHIA   FAIR      63  48  58 NE10      30.15R                  
6HR MIN TEMP:  63; 6HR MAX TEMP:  78;                                

NORTH PHILA    FAIR      61  49  64 NE6       30.16S                  
BLUE BELL*     FAIR      55  51  87 CALM      30.16S                  
DOYLESTOWN     FAIR      57  48  72 CALM      30.15S                  
QUAKERTOWN*    CLEAR     55  50  82 CALM      30.16F                  
PERKASIE*      FAIR      54  52  94 CALM      30.17S                  
POTTSTOWN      FAIR      56  48  74 NE3       30.16F                  
LANCASTER      MOCLDY    65  53  65 E13       30.14S                  
COATESVILLE    FAIR      61  52  72 CALM      30.16F                  
WEST CHESTER   FAIR      61  48  63 NE6       30.15F                  
READING        FAIR      61  51  70 CALM      30.14F                  
6HR MIN TEMP:  61; 6HR MAX TEMP:  75;                                

ALLENTOWN      FAIR      58  47  66 N3        30.16R                  
6HR MIN TEMP:  57; 6HR MAX TEMP:  72;                                

QN CITY/ALNTWN FAIR      59  50  72 NE3       30.17S                  
MOUNT POCONO   FAIR      44  44 100 NE3       30.17F                  
6HR MIN TEMP:  44; 6HR MAX TEMP:  60;                                

HAZLETON       FAIR      52  46  82 CALM      30.19F                  
LEHIGHTON      FAIR      52  50  93 CALM      30.17F                  
WILKES BARRE   FAIR      52  48  86 E7        30.17S                  

$$
DEZALL-MDZ008-012-015-019-020-250700-
DELAWARE AND EASTERN MARYLAND
  
CITY           SKY/WX    TMP DP  RH WIND       PRES   REMARKS
WILMINGTON     FAIR      65  51  60 NE12      30.14S                  
6HR MIN TEMP:  65; 6HR MAX TEMP:  77;                                

DOVER          MOCLDY    65  52  62 NE10      30.13R                  
CHESWOLD         N/A     64  52  63 E7        30.14R                  
GEORGETOWN     FAIR      65  54  67 E8        30.13R                  
6HR MIN TEMP:  64; 6HR MAX TEMP:  77;                                

EASTON         FAIR      68  56  66 E6        30.15R                  
STEVENSVILLE   FAIR      70  55  60 E9        30.11S                  
PATUXENT       FAIR      64  62  93 W5        30.09                   
OCEAN CITY     MOCLDY    65  55  70 NE7       30.13R                  
WALLOPS ISLAND FAIR      67  56  67 NE10      30.12R                  
CAMBRIDGE      CLEAR     66  57  72 E12       30.12R                  
SALISBURY      FAIR      63  56  78 E7        30.11R                  

$$
PAZ001-021-NYZ056-072-MDZ011-DCZ001-250700-
OTHER NEARBY LOCATIONS
  
CITY           SKY/WX    TMP DP  RH WIND       PRES   REMARKS
HARRISBURG     MOCLDY    67  52  58 E7        30.12S                  
STATE COLLEGE  CLOUDY    59  51  76 CALM      30.15S                  
WILLIAMSPORT   FAIR      60  51  72 E5        30.15S                  
BINGHAMTON     FAIR      48  44  86 CALM      30.17F                  
NEW YORK CITY  MOCLDY    60  49  66 CALM      30.17S                  
BALTIMORE      MOCLDY    71  54  54 NE13      30.10S                  
WASHINGTON DC  MOCLDY    70  55  59 CALM      30.10S                  

$$